Home   Weather   Steyr   Past weeks

Flag for Austria Past Weather in Steyr, Upper Austria, Austria — Yesterday and Last 2 Weeks

Now
26 °F

Chilly.


Feels Like: 17 °F
Forecast: 3 / 24 °F
Wind: 8 mph from Northeast

Location: Kremsmuenster

Current Time: Jan 18, 2017 at 1:24:59 pm

Latest Report: Jan 18, 2017 at 12:00 pm


Visibility: N/A

Pressure: 30.65 "Hg

Humidity: 77%

Dew Point: 19 °F

Location of SteyrLocation

Past Weather in Steyr — Graph

°F

Steyr Temperature Yesterday

Maximum temperature yesterday: 27 °F (at 1:00 pm)
Minimum temperature yesterday: 24 °F (at 7:00 pm)
Average temperature yesterday: 25 °F

High & Low Weather Summary for the Past Weeks

 TemperatureHumidityPressure
High40 °F (Jan 12, 4:00 pm)93% (Jan 13, 4:00 am)30.77 "Hg (Jan 13, 4:00 am)
Low9 °F (Jan 7, 8:00 am)54% (Jan 13, 1:00 pm)29.41 "Hg (Jan 13, 4:00 am)
Average26 °F80%30.21 "Hg
* Reported Jan 3 12:00 pm — Jan 18 12:00 pm, Steyr, Weather by CustomWeather, © 2017

Note: Actual official high and low records may vary slightly from our data, if they occured in-between our weather recording intervals... More about our weather records

Advertising

Steyr Weather History for the Previous 24 Hours

Scroll right to see more
 ConditionsComfort  
Time TempWeatherWind HumidityBarometerVisibility
12:00 pm
Wed, Jan 18
26 °FChilly.8 mph77%30.65 "HgN/A
11:00 am25 °FChilly.5 mph78%30.66 "HgN/A
10:00 am24 °FLight snow. Overcast.5 mph78%30.65 "Hg3 mi
9:00 am24 °FCold.3 mph79%30.65 "HgN/A
8:00 am23 °FCold.2 mph79%30.64 "HgN/A
7:00 am23 °FFog.1 mph80%30.63 "Hg3 mi
6:00 am23 °FCold.1 mph80%30.62 "HgN/A
5:00 am24 °FCold.2 mph79%30.62 "HgN/A
4:00 am24 °FCold.1 mph79%30.63 "HgN/A
3:00 am24 °FCold.2 mph80%30.63 "HgN/A
2:00 am24 °FCold.3 mph78%30.63 "HgN/A
1:00 am24 °FCold.3 mph80%30.62 "HgN/A
12:00 am24 °FCold.5 mph81%30.62 "HgN/A
11:00 pm
Tue, Jan 17
24 °FCold.1 mph85%30.61 "HgN/A
10:00 pm24 °FCold.No wind84%30.60 "HgN/A
9:00 pm24 °FCold.1 mph83%30.60 "HgN/A
8:00 pm24 °FCold.No wind82%30.59 "HgN/A
7:00 pm24 °FFog.No wind80%30.58 "Hg3 mi
6:00 pm24 °FCold.1 mph79%30.56 "HgN/A
5:00 pm25 °FChilly.3 mph76%30.55 "HgN/A
4:00 pm26 °FIcy mix. Overcast.2 mph79%30.53 "Hg3 mi
3:00 pm27 °FChilly.6 mph76%30.52 "HgN/A
2:00 pm27 °FChilly.3 mph71%30.51 "HgN/A
1:00 pm27 °FChilly.2 mph75%30.51 "HgN/A
Weather by CustomWeather, © 2017

See weather overviewHow to use our weather pages